Terminal Aerodrome Forecast
Issued by NWS Blacksburg, VA

Current Version | Previous Version | Graphics & Text | Print | Product List | Glossary On
Versions: 1 2 3 4 5 6 7 8 9 10 11 12 13 14 15 16 17 18 19 20 21 22 23 24 25 26 27 28 29 30 31 32 33 34 35 36 37 38 39 40 41 42 43 44
000
FTUS41 KRNK 271741
TAFBLF
TAF
KBLF 271741Z 2718/2818 23009KT P6SM -SHRA SCT025 BKN070
      TEMPO 2718/2720 4SM SHRA BKN025
     FM272000 25009G17KT P6SM VCSH BKN040
      TEMPO 2722/2724 4SM SHRA BKN025
     FM280000 28010G20KT P6SM OVC015
     FM281300 28015G25KT P6SM SCT030=

USA.gov is the U.S. government's official web portal to all federal, state and local government web resources and services.